Location: Newark
(45.5000°N, 11.4167°E)
Time: 07:29:21
(UTC+00:00)

Altair - Pass Details

Date: 31 August 2019
Orbit: 1501 x 1683 km, 47.2° (Epoch: 19 September)

Event Time Altitude Azimuth Distance (km) Brightness Sun altitude
Exits shadow 01:40:43 38° 256° (WSW) 2,298 8.0 -26.6°
Maximum altitude 01:45:15 89° 344° (NNW) 1,613 7.5 -26.1°
Drops below altitude 10° 01:54:52 10° 77° (ENE) 3,754 10.3 -24.9°
Sets 01:57:53 0° 77° (ENE) 4,716 11.0 -24.6°
